Temp
23 22 22 22 23 23 25 27 28 27 28 26 28 27 26 25 25 24 21 22 23 22 22 21 21 22 21 21 21 21 21 21 21 21 21 21 21 21 21 21 21 21 21 20 21 21 21 21 21
22 22 22 20 23 24 25 27 27 27 27 27 27 26 25 24 22 19 20 21 23 22 22 21 21 22 22 21 21 21 21 21 21 21 21 21 21 21 21 21 21 21 21 21 21 21 21 21 20
23 23 22 22 23 24 25 28 27 27 27 28 27 26 25 22 21 20 22 22 22 22 22 21 21 21 21 22 21 21 21 21 21 22 21 21 21 21 21 21 21 21 21 21 21 21 21 21 21
23 22 21 24 26 27 27 27 27 27 28 27 26 24 24 24 22 22 22 22 22 22 21 21 21 21 21 22 22 21 21 21 21 21 20 21 21 21 21 21 21 21 21 21 21 21 21 21 21
23 21 24 26 27 27 28 28 28 28 28 27 27 24 23 23 23 22 22 23 22 22 22 21 21 21 22 21 22 21 21 21 21 20 21 22 21 21 21 21 21 21 21 21 21 21 21 21 21
22 22 24 25 27 27 28 28 28 28 27 26 25 24 23 22 22 21 22 22 22 22 22 21 21 21 21 21 21 21 21 21 21 21 21 21 21 21 21 21 21 21 21 21 21 21 21 21 22
23 23 25 27 27 27 29 29 27 27 26 26 25 23 22 22 22 21 22 22 22 22 21 21 21 21 21 21 21 22 22 21 21 21 21 22 21 21 21 21 21 21 21 21 21 22 21 22 22
22 23 26 26 27 28 29 29 28 27 26 27 26 23 22 22 22 22 22 22 21 21 21 21 21 21 21 21 21 21 21 21 21 21 21 21 21 21 21 21 21 21 21 21 21 21 21 22 22
23 24 26 29 28 29 29 28 28 28 27 28 27 24 24 23 22 22 21 21 21 21 21 21 21 21 21 21 21 21 21 21 21 21 21 21 21 21 21 21 21 21 21 21 22 22 22 22 22
25 24 28 29 30 28 29 28 28 27 27 26 24 24 23 22 22 21 21 20 21 21 21 22 21 22 21 21 21 21 21 21 21 21 21 21 22 21 21 22 21 21 21 22 22 22 22 22 22
26 27 29 31 31 30 29 28 29 27 25 26 24 23 23 22 22 21 21 21 22 22 22 22 22 22 22 21 22 21 21 21 21 22 22 22 22 22 22 22 22 21 21 22 22 22 23 22 23
26 28 29 30 31 30 29 29 28 27 27 27 25 24 24 23 22 22 21 22 22 22 23 23 22 22 22 22 22 22 22 22 22 22 22 22 22 22 22 22 22 22 22 23 23 22 23 23 23
27 29 31 31 31 30 30 29 28 28 28 27 26 25 24 24 23 23 22 22 23 22 23 23 22 22 23 23 22 22 22 22 22 23 23 23 23 23 23 23 23 23 23 23 23 23 23 22 22
30 29 30 31 31 30 29 28 29 28 27 26 25 25 24 24 24 23 23 23 23 23 24 23 23 23 23 23 23 23 24 23 23 23 23 23 23 23 23 23 23 23 23 23 23 23 23 23 23
31 31 30 31 30 29 28 28 28 27 26 26 25 25 25 25 24 24 24 23 24 24 24 24 24 24 24 24 24 24 24 24 24 24 24 24 23 23 23 23 23 24 24 23 24 24 22 22 22
29 30 29 31 30 29 29 27 28 26 26 25 25 26 25 25 25 25 25 24 24 25 24 24 25 24 24 24 24 24 24 24 24 24 25 24 24 24 24 23 24 24 24 24 24 24 23 23 23
27 29 29 31 30 29 29 28 28 26 26 25 25 26 26 25 25 25 25 25 25 25 25 25 25 25 25 25 25 25 25 24 25 25 25 25 25 25 24 24 25 24 24 24 24 24 23 23 24
28 28 28 29 30 29 27 27 27 27 27 26 26 26 26 25 25 26 26 26 26 26 26 26 25 25 25 25 25 24 24 25 25 26 25 26 25 25 24 24 24 24 24 24 24 24 23 23 24
29 29 29 30 31 29 28 28 27 27 27 27 25 25 25 25 27 26 26 26 26 26 25 26 26 26 25 25 24 24 24 25 26 26 27 26 26 26 25 24 24 24 24 24 24 23 23 24 24
29 29 29 30 30 29 28 28 27 27 27 27 27 26 26 26 25 25 26 26 26 26 26 26 27 26 26 25 25 25 25 25 26 26 26 27 27 26 25 25 25 24 24 24 24 24 23 24 24
30 30 30 31 30 29 28 28 27 27 28 28 28 28 27 27 25 24 25 25 26 25 26 26 27 26 26 26 25 24 25 25 25 26 26 27 27 27 25 25 25 25 24 25 24 24 23 23 24
30 32 32 30 28 28 29 26 26 27 27 28 28 28 28 27 27 26 25 25 25 26 27 27 27 26 26 26 25 25 26 25 26 26 27 27 27 27 26 26 25 25 25 25 25 25 24 23 23
31 33 31 30 27 28 29 27 27 26 27 27 28 29 29 28 28 27 26 27 27 27 27 28 27 26 26 27 26 26 26 26 26 26 27 26 27 27 27 26 26 26 26 26 25 25 24 24 22
33 32 28 25 26 27 27 27 28 26 28 30 29 29 30 29 28 28 28 27 27 27 27 27 27 27 26 27 26 26 26 26 26 26 26 27 27 27 27 27 27 27 26 26 26 26 25 25 24
30 27 27 29 27 27 25 27 29 30 28 30 30 30 30 29 28 28 27 27 27 26 27 27 27 26 27 27 26 26 26 26 26 26 27 27 27 27 27 27 27 27 27 26 26 25 25 25 25
30 28 27 30 27 28 26 28 31 31 31 30 31 31 31 30 28 28 28 28 27 27 27 27 26 26 26 27 27 27 26 26 26 26 27 27 27 27 27 27 27 27 27 27 26 25 25 25 25
30 29 28 26 24 26 27 28 31 32 32 31 29 30 30 30 30 28 28 28 28 27 27 27 26 26 26 27 27 27 27 26 26 26 27 27 27 27 26 27 27 27 26 26 26 26 26 25 25
30 29 29 24 29 29 27 28 29 31 32 31 29 29 30 30 30 30 28 28 28 28 27 27 27 27 28 27 26 27 27 27 27 27 26 26 27 26 26 27 26 26 26 26 26 26 25 24 25
28 28 27 25 24 26 27 27 28 31 31 31 29 28 29 29 30 30 29 29 29 29 27 27 27 26 26 26 26 26 27 27 27 27 27 27 26 26 26 26 26 26 26 26 26 25 25 24 24
30 30 26 25 28 23 24 26 30 30 30 30 30 28 29 30 30 31 29 29 28 28 28 27 27 26 26 27 26 26 26 26 27 27 27 27 26 26 26 26 26 26 25 25 25 25 24 24 23
Height
773 775 775 775 798 800 809 799 780 786 785 779 778 786 794 795 801 817 798 801 804 808 811 815 817 818 820 822 822 824 827 828 827 826 827 828 829 829 831 832 833 832 834 835 836 838 838 838 839
774 775 777 784 807 819 814 787 790 783 780 778 780 786 793 802 795 799 802 802 806 808 811 815 818 820 822 823 824 827 828 829 828 828 829 831 831 832 832 833 834 834 835 837 838 839 840 840 841
774 775 782 795 808 818 813 786 785 781 776 777 785 785 791 800 799 799 800 803 807 810 813 816 820 821 822 824 826 828 829 829 829 830 832 832 833 834 835 835 834 835 837 839 840 841 842 843 844
774 776 782 799 804 792 789 783 779 781 776 776 782 796 792 793 796 799 801 804 808 811 814 817 820 821 823 825 827 829 829 830 831 832 833 834 835 836 837 837 837 837 839 841 842 843 844 844 845
773 779 798 799 794 786 777 777 777 782 781 783 783 800 801 797 797 799 802 806 809 812 816 818 821 822 825 826 828 829 830 832 832 833 834 836 836 838 838 838 839 839 841 842 843 844 844 845 846
781 785 807 812 798 787 778 774 778 782 784 787 791 798 802 799 799 801 805 808 811 813 817 820 822 824 826 827 829 830 832 833 834 835 836 837 838 838 839 839 839 841 842 843 844 843 844 845 846
784 795 805 799 799 793 782 774 785 786 788 791 786 803 802 801 802 804 807 810 813 815 818 821 823 824 826 828 829 831 832 833 834 836 837 838 839 840 840 840 841 842 843 843 844 843 845 846 847
781 790 799 797 801 793 775 777 778 783 790 783 785 802 807 800 803 806 809 812 814 816 819 821 823 825 826 828 830 831 832 833 835 837 838 839 840 842 842 841 842 844 844 845 845 845 846 846 846
775 799 803 791 793 784 772 782 778 777 785 784 786 789 791 798 803 806 810 813 815 816 819 821 822 824 826 829 830 832 833 834 836 838 839 840 841 843 843 843 844 845 846 846 846 847 848 847 847
782 801 789 771 769 776 772 777 780 786 788 791 792 790 793 798 802 806 809 811 813 815 817 820 822 824 826 828 830 832 834 835 836 838 839 840 841 843 843 844 845 846 847 848 848 848 848 847 848
781 789 772 765 760 762 771 777 775 787 799 790 793 794 796 800 803 806 808 809 810 813 816 818 821 823 826 828 829 832 834 835 837 838 840 841 842 843 843 844 845 846 846 847 847 847 847 848 848
789 770 769 765 760 765 772 771 781 782 782 778 785 787 794 799 802 804 807 809 811 813 815 818 821 824 826 828 829 832 834 835 837 839 840 842 843 843 843 844 845 845 846 846 847 847 847 847 847
783 770 760 757 762 765 766 775 779 780 774 777 785 790 793 796 799 804 807 809 811 813 814 817 820 822 825 827 829 831 833 835 837 839 840 841 842 842 843 843 844 845 845 846 846 847 846 846 846
768 768 764 757 763 766 774 777 775 779 777 782 786 790 793 795 798 803 805 806 808 811 813 816 818 821 825 827 829 831 833 835 837 838 840 841 842 842 843 843 843 844 844 845 846 846 845 844 843
763 774 769 767 765 772 771 789 785 777 778 784 787 789 793 794 798 798 800 803 805 808 811 813 816 819 822 825 828 830 832 834 835 837 839 840 841 842 842 842 842 842 843 843 843 843 841 841 840
779 778 796 771 768 771 773 801 779 776 781 787 787 788 790 792 792 794 797 800 803 807 809 812 816 818 822 824 827 829 831 832 834 835 837 839 840 841 841 841 841 841 841 841 841 841 840 839 837
792 806 795 780 763 771 778 790 776 774 781 787 786 786 787 790 791 792 794 796 800 803 807 810 814 815 818 821 824 827 829 831 831 833 835 837 838 839 840 840 840 841 840 841 841 840 838 835 834
806 805 793 790 773 771 783 785 777 773 777 782 783 783 784 785 782 784 788 792 796 799 804 808 811 813 816 820 823 826 828 829 830 831 832 834 836 837 838 839 839 840 840 840 840 838 836 833 831
784 791 793 773 763 774 778 780 775 771 776 778 782 781 780 779 774 779 783 787 792 796 800 804 808 811 815 818 821 823 825 827 828 829 830 832 833 834 836 837 838 839 839 838 838 836 833 830 829
784 792 788 768 759 769 777 779 771 769 767 766 771 775 774 773 774 774 778 782 786 789 794 799 802 806 810 814 816 819 821 823 826 827 828 829 830 831 833 835 836 837 837 836 834 833 831 828 827
781 786 780 777 767 767 776 785 778 765 761 763 763 763 766 766 768 770 774 776 780 785 789 793 797 801 806 810 814 818 819 820 822 824 825 826 827 828 830 833 834 836 835 833 831 830 829 826 826
790 759 764 772 786 805 773 817 783 766 763 761 758 758 757 759 761 763 767 772 776 779 784 788 792 796 801 806 810 813 814 816 818 821 823 824 825 826 828 830 831 833 832 830 828 827 827 826 824
777 754 765 768 788 789 787 807 779 766 772 759 750 748 746 749 752 756 760 764 768 774 779 783 787 792 797 802 805 809 811 813 816 818 820 820 821 823 825 826 827 827 825 825 823 823 822 820 821
750 763 778 789 796 819 792 801 778 777 755 743 739 740 737 741 744 748 752 758 764 770 774 778 782 786 791 796 801 804 807 810 812 814 815 816 818 820 821 822 822 821 820 819 818 819 818 817 817
763 788 821 815 825 824 797 798 771 741 736 725 722 726 725 730 737 744 748 752 757 762 768 773 777 781 786 791 795 798 801 805 807 809 811 814 816 817 818 819 819 818 818 816 815 816 817 815 814
770 784 818 822 832 812 796 802 759 722 714 710 709 709 714 723 729 734 737 743 749 754 759 765 769 774 779 784 788 793 797 800 803 805 807 809 811 813 814 815 815 815 815 814 813 812 812 813 813
767 786 772 806 817 818 798 772 734 717 714 710 711 713 716 718 722 726 730 735 741 746 750 756 762 767 772 776 781 786 790 795 798 800 803 806 808 810 811 812 812 812 812 812 810 809 810 810 809
753 754 788 806 813 819 804 790 776 736 721 713 715 712 711 711 715 716 723 728 733 737 742 749 754 758 762 769 775 779 783 787 790 795 799 802 804 807 809 810 810 810 809 808 808 808 808 808 807
767 772 777 788 805 817 820 796 740 728 719 715 711 708 707 710 708 708 713 718 722 729 736 739 746 751 757 762 767 772 775 779 786 790 793 796 801 804 805 806 807 807 808 807 808 807 806 804 803
751 758 776 799 795 806 806 790 722 717 715 714 705 703 698 695 698 699 704 709 716 721 726 731 737 743 747 752 759 763 769 773 778 782 786 792 797 800 802 804 805 805 806 806 806 804 803 802 801
Wind_Speed
3 2 2 3 4 4 1 2 2 3 2 2 6 3 5 3 1 2 9 14 23 21 17 14 12 12 12 11 11 10 9 11 13 13 13 13 13 12 13 14 13 14 14 13 13 13 13 12 12
4 4 2 2 4 4 3 2 3 1 3 7 7 4 4 2 3 7 13 17 22 21 19 15 13 12 11 10 10 8 9 10 12 12 12 11 12 12 11 13 13 14 14 13 13 12 12 12 11
6 6 3 3 3 3 3 0 4 4 4 3 4 5 3 1 5 14 7 24 23 20 18 16 14 12 11 10 9 9 9 9 11 11 11 10 12 11 10 11 13 13 14 12 11 11 10 10 10
6 3 3 3 3 2 3 4 5 6 4 6 5 6 4 3 15 9 23 25 22 19 18 15 13 11 10 10 9 8 9 9 11 11 11 10 11 11 11 10 11 12 12 10 10 10 10 10 9
3 2 4 3 2 3 2 6 5 2 4 5 2 3 4 2 8 19 26 23 21 19 17 14 12 11 10 11 9 8 9 9 10 11 12 10 9 9 9 9 10 12 11 10 9 9 9 9 10
3 3 4 1 1 4 4 8 5 3 4 3 5 4 2 10 19 25 24 21 19 20 18 15 12 11 10 10 9 8 8 9 10 11 10 10 9 9 9 8 8 7 7 6 7 7 8 8 9
5 3 1 0 1 1 3 6 4 4 5 3 7 4 2 3 16 22 20 19 18 18 17 15 12 11 11 10 10 9 9 9 9 10 9 9 9 8 7 7 7 6 4 3 3 4 5 5 6
4 3 0 3 6 4 7 4 6 5 2 7 5 5 4 6 19 19 16 16 17 17 16 13 13 13 12 11 11 10 10 10 9 10 8 8 7 6 5 5 5 4 2 1 1 3 3 4 4
3 3 1 3 5 3 11 5 4 2 9 2 2 4 9 23 20 18 16 14 15 15 15 14 14 12 12 12 11 10 9 9 9 9 9 7 8 7 5 5 5 3 2 1 2 3 2 3 3
3 3 4 4 3 6 14 9 8 4 7 3 6 10 24 24 21 17 16 17 19 17 17 16 15 13 13 13 13 11 11 11 11 11 10 9 8 7 6 5 5 3 3 2 3 3 2 3 4
1 3 1 3 3 11 12 6 3 11 2 4 9 13 16 19 16 15 16 18 23 20 18 18 17 15 14 14 13 12 13 12 11 11 10 9 8 7 6 6 5 6 7 6 7 7 8 6 7
3 7 5 3 5 9 12 11 5 7 5 8 15 18 16 12 13 16 15 18 18 18 19 19 18 17 15 12 13 13 14 13 12 11 10 9 8 7 6 5 4 5 6 8 9 9 9 10 10
4 4 4 5 4 6 10 5 5 7 6 12 13 14 15 12 16 15 16 17 19 18 19 20 19 17 15 14 13 14 15 14 12 11 12 12 10 9 8 7 7 7 8 9 10 10 12 13 15
3 4 8 4 7 7 8 4 6 3 10 13 15 14 13 13 17 15 17 20 24 23 21 20 19 17 16 16 14 15 14 13 13 12 12 12 12 11 10 9 10 10 10 11 11 12 12 13 15
2 5 5 3 4 4 9 1 5 7 12 14 14 13 12 13 18 21 23 24 28 27 23 23 22 21 19 18 16 15 14 14 14 14 14 14 14 13 13 12 13 13 13 14 13 11 11 13 14
4 3 2 4 5 5 4 5 6 10 13 12 13 11 12 12 20 22 23 27 27 27 27 25 25 24 22 20 18 16 16 15 16 15 14 15 15 15 15 15 14 12 12 13 14 14 14 16 17
5 3 5 2 7 6 5 3 5 9 10 11 12 13 13 11 14 22 24 28 29 29 29 28 27 27 26 24 22 19 18 18 19 19 18 17 17 16 16 15 13 12 12 9 11 12 13 17 18
6 4 6 5 6 6 7 5 5 12 11 12 12 13 13 12 19 29 28 30 32 32 32 31 30 29 27 25 22 22 21 17 14 16 19 18 19 19 17 15 13 12 12 11 12 14 15 17 18
5 5 10 9 6 5 11 6 9 14 11 11 9 10 11 13 16 22 28 31 30 31 32 34 33 32 29 25 24 22 22 17 15 13 13 17 17 18 19 17 14 11 10 11 10 12 14 16 13
6 8 8 5 5 8 6 9 6 13 19 18 15 12 13 11 7 13 22 25 30 35 36 36 36 35 33 30 28 26 24 23 19 15 12 12 15 17 18 17 13 12 12 11 12 11 13 14 13
4 5 5 5 2 3 5 5 5 8 11 12 13 12 11 13 12 8 15 25 28 30 35 38 38 37 36 33 30 25 16 15 19 18 14 14 10 13 17 15 14 13 14 16 17 13 13 15 14
4 5 5 3 4 3 2 5 6 9 16 14 17 14 15 14 11 11 15 18 25 34 34 36 38 37 38 35 33 30 25 18 20 19 13 14 13 15 15 15 15 14 14 15 14 15 15 15 16
9 3 6 5 4 3 1 3 5 5 10 17 20 18 18 16 15 14 15 24 32 30 34 37 36 35 36 36 33 32 27 22 18 18 15 10 14 15 14 15 16 17 18 15 16 15 15 17 17
1 2 6 5 3 2 5 6 4 6 9 14 16 18 19 14 16 16 23 25 25 29 32 34 35 35 36 35 34 33 32 28 22 21 20 15 10 10 13 15 16 17 19 21 21 18 17 19 20
4 6 4 4 4 6 2 3 9 8 7 15 21 20 21 15 13 13 14 20 25 28 32 33 34 35 37 37 36 37 35 31 29 27 24 19 17 16 16 15 14 14 15 17 19 22 21 20 22
4 7 5 4 3 6 2 5 8 6 9 11 14 17 19 15 12 15 18 23 26 29 33 34 35 36 37 38 38 36 36 34 31 28 28 25 21 18 13 13 12 13 14 14 15 15 18 20 23
3 3 4 5 3 2 4 8 10 4 4 2 10 8 14 15 14 15 16 24 26 28 32 36 35 35 37 41 39 38 36 35 33 30 30 27 25 22 19 14 15 14 13 14 14 12 13 16 20
5 6 2 2 2 5 4 5 7 11 12 2 7 10 11 15 15 15 13 21 28 31 33 35 39 40 43 40 40 40 38 37 36 32 31 29 27 25 21 18 17 16 16 16 13 13 14 16 20
4 2 3 5 5 6 3 6 7 7 8 9 7 9 11 12 16 17 13 23 31 31 28 36 36 37 35 37 39 39 40 39 36 35 34 33 28 24 23 20 18 18 17 12 13 16 17 18 18
3 3 4 5 4 3 5 7 6 9 7 7 10 9 11 16 17 17 14 19 24 29 31 33 36 34 39 41 37 39 38 38 37 37 36 33 32 27 22 20 20 18 15 14 16 15 13 15 15
Wind_Direction
163 183 332 43 57 75 49 300 256 93 99 150 144 150 146 56 152 186 158 151 158 157 156 157 155 147 154 147 132 120 118 126 118 122 122 127 132 132 127 124 122 124 122 127 128 124 129 128 129
144 154 81 78 77 67 289 275 82 344 103 117 79 96 62 79 77 114 138 160 159 155 156 158 158 152 151 149 132 134 133 129 119 116 123 132 121 127 125 125 119 125 120 118 123 125 127 130 135
133 176 96 85 102 148 180 97 132 103 149 99 107 56 77 102 96 147 166 158 159 157 159 158 158 159 154 151 147 146 144 130 121 120 127 127 127 128 124 124 123 120 121 122 126 121 126 128 133
171 18 46 82 114 211 184 160 123 143 77 66 106 69 77 203 149 173 156 160 161 159 162 158 161 155 159 156 157 153 137 134 128 126 128 124 131 133 132 128 117 123 120 119 113 123 130 135 141
89 60 51 67 46 325 173 148 140 110 89 80 87 94 74 66 164 156 161 164 163 161 160 159 162 158 168 161 160 154 145 141 137 134 134 133 136 133 128 129 125 121 120 129 130 131 151 151 153
44 87 52 68 76 335 103 146 146 84 78 116 74 88 108 137 145 158 163 166 167 161 161 158 161 163 169 163 161 153 151 151 147 141 141 147 145 139 142 139 130 129 132 133 138 146 157 164 165
108 74 142 21 137 356 161 139 110 103 110 101 133 90 47 130 154 161 165 167 168 166 164 162 164 166 166 163 164 158 158 158 155 153 152 154 149 150 155 145 139 138 133 143 165 171 154 164 171
107 90 353 223 184 217 155 129 118 106 29 109 149 166 181 170 161 163 162 166 172 175 173 170 171 173 170 174 172 168 164 166 167 163 155 157 156 160 146 153 140 139 127 154 184 200 170 176 183
169 64 188 214 161 185 145 126 145 136 136 128 158 143 151 151 160 158 155 164 179 186 186 186 186 181 179 179 173 176 178 174 174 171 176 168 167 178 177 175 156 162 154 158 147 161 162 198 214
84 108 232 211 197 160 164 132 154 119 152 70 80 97 129 147 159 159 169 177 190 196 199 198 195 192 189 184 177 188 179 185 186 183 187 187 186 189 192 196 189 218 222 220 216 230 243 256 249
352 211 239 290 160 141 153 133 138 129 273 182 160 147 145 152 164 177 186 192 198 203 203 204 201 200 197 189 188 196 193 196 194 192 193 190 191 193 201 210 216 217 231 243 242 252 266 275 271
313 249 241 319 144 147 163 141 120 155 216 156 159 160 156 167 180 186 190 202 206 208 206 205 203 203 202 198 202 202 201 200 200 198 199 197 203 207 220 239 244 238 247 250 257 264 271 274 277
196 281 291 190 150 122 130 152 162 202 130 147 149 158 172 180 189 193 197 206 207 211 209 206 204 203 201 205 209 211 208 207 203 203 210 212 216 225 240 252 260 259 260 266 273 279 284 286 286
223 254 297 144 159 141 142 154 122 170 133 148 158 172 180 189 195 189 192 200 207 209 207 205 205 203 202 207 210 211 212 214 215 213 218 226 234 241 250 264 265 269 270 272 282 284 291 291 296
298 3 357 16 126 145 105 107 218 151 149 160 175 180 187 198 194 203 201 201 209 212 207 204 203 202 205 209 212 214 216 221 228 230 229 237 249 254 261 269 274 277 274 280 289 296 298 297 301
59 80 309 210 164 167 109 252 203 156 156 175 183 193 196 202 205 206 208 212 213 215 214 208 207 210 211 214 219 224 228 235 241 242 243 248 255 260 264 270 279 293 284 282 284 301 303 308 312
21 268 247 246 194 140 172 253 196 165 170 188 195 200 206 208 218 219 215 215 216 216 215 214 212 214 215 217 221 229 238 246 244 242 247 253 259 262 263 270 277 283 289 286 290 296 300 307 311
253 238 271 235 208 180 176 231 170 184 177 202 205 205 207 208 216 215 214 215 217 219 217 217 216 219 221 224 231 237 242 248 236 243 250 253 258 263 259 266 267 279 282 291 298 300 303 300 307
263 240 246 261 201 157 212 202 194 189 203 210 219 217 216 212 224 213 211 211 210 217 217 219 218 221 223 223 228 227 226 226 227 250 251 250 254 260 258 261 265 269 280 294 293 292 297 307 320
281 284 280 284 192 177 177 233 206 186 205 206 214 225 225 230 197 200 204 202 203 213 217 219 221 223 222 223 222 218 221 227 230 245 258 254 249 249 251 256 259 266 275 286 288 286 294 301 315
248 224 271 240 91 48 108 300 199 220 218 216 223 226 234 227 205 189 185 196 201 205 213 219 223 223 222 220 216 218 224 230 227 236 250 252 247 251 248 256 262 274 278 282 281 286 281 287 309
317 253 255 162 107 220 143 268 242 203 212 213 223 218 225 222 218 201 190 188 194 209 217 221 222 222 219 218 217 221 223 222 225 232 250 266 250 250 258 258 263 265 282 284 288 286 290 287 289
237 322 294 323 124 88 167 307 268 155 224 219 223 223 226 213 210 202 193 198 207 209 216 219 221 222 220 216 221 222 226 229 231 232 242 270 251 251 258 265 268 264 266 276 280 283 279 280 280
280 150 43 43 78 0 221 174 265 180 213 220 222 222 231 211 209 203 200 198 204 209 213 217 219 222 218 216 219 222 225 227 228 228 236 251 258 256 254 257 261 266 270 268 273 274 278 288 288
87 54 333 1 14 227 7 116 247 248 235 218 209 205 219 208 201 193 192 194 196 196 207 214 220 221 219 220 222 224 226 229 229 229 230 242 253 262 263 263 261 265 277 281 274 270 275 283 289
188 156 162 234 223 257 71 236 263 235 247 243 215 205 204 203 193 193 198 198 195 197 201 206 214 218 221 221 224 226 226 229 232 235 231 236 244 248 252 257 254 263 272 288 291 280 268 277 289
206 189 196 109 24 42 242 287 300 264 278 279 205 195 191 201 197 198 197 198 197 199 200 206 211 215 220 223 223 225 227 228 233 236 234 240 245 244 252 257 256 260 262 283 281 275 272 278 288
161 170 85 12 221 268 284 285 248 310 297 239 207 201 199 198 199 212 190 195 200 203 203 205 212 217 222 222 224 227 228 229 233 237 239 241 242 243 249 256 257 260 267 272 264 271 273 280 288
350 263 55 126 148 178 233 265 225 258 283 297 255 206 186 198 200 211 198 196 199 202 199 204 206 212 213 220 223 224 230 232 233 237 239 240 243 249 249 251 259 268 269 257 261 273 281 283 289
182 207 158 139 249 207 162 263 271 254 297 298 287 232 217 201 202 206 197 192 191 194 197 200 205 205 214 220 219 224 227 231 233 236 239 243 244 245 248 253 267 272 259 271 276 273 281 289 303